Powrót do katalogu

STARLINK-36859

AktywnyŁącznośćVLEO
NORAD 68710·PAYLOAD·🇺🇸 United States

Wystrzelony Apr 14, 2026 z Cape Canaveral Space Force Station

Loading…

Następne Przeloty (najbliższe 24 godziny)

TLE

ŚwieżeSource: CelesTrak SupGP

Epoka: Sep 14, 2026, 21:28 UTC

1 68710C 26081M   26257.89493056  .00039319  00000+0  11616-2 0  2573
2 68710  53.1580 232.0124 0001346  90.5912  19.7541 15.34373959    17

Śledź STARLINK-36859 w czasie rzeczywistym z AllMySat

Download on the App Store